Regional Weather Roundup
Issued by NWS

Home | Current Version | Previous Version | Graphics & Text | Print | Product List | Glossary On
Versions: 1 2 3 4 5 6 7 8 9 10 11 12 13 14 15 16 17 18 19 20 21 22 23 24 25 26 27 28 29 30 31 32 33 34 35 36 37 38 39 40 41 42 43 44 45 46 47 48 49 50
000
ASUS45 KSLC 061410
RWRUT

UTAH REGIONAL WEATHER ROUNDUP
NATIONAL WEATHER SERVICE SALT LAKE CITY UT
800 AM MDT WED MAY 06 2015

UTZ001>011-023>025-061500-

NORTHERN UTAH

CITY           SKY/WX    TMP DP  RH WIND       PRES   REMARKS
DUGWAY         PTSUNNY   53  49  86 CALM      29.83
HILL AFB       PTSUNNY   54  50  86 S6        29.82S
LOGAN          SUNNY     46  45  96 CALM      29.82S FOG
OGDEN          NOT AVBL
PROVO AIRPORT  NOT AVBL
SALT LAKE CITY PTSUNNY   55  49  80 S8        29.81S
VERNAL         LGT RAIN  51  49  92 CALM      29.81R
WENDOVER       PTSUNNY   54  45  71 NE9       29.81S
HEBER CITY     CLOUDY    46  45  93 CALM      29.85S
WEST JORDAN    MOSUNNY   52  52 100 S8        29.83S

$$

UTZ012>022-026-027-061500-

SOUTHERN/CENTRAL UTAH

CITY           SKY/WX    TMP DP  RH WIND       PRES   REMARKS
BLANDING       PTSUNNY   49  46  89 SW7       29.97R
BRYCE CANYON   CLOUDY    42  39  89 W5        29.96S
CEDAR CITY     PTSUNNY   50  44  80 SE7       29.88F
DELTA          CLOUDY    51  46  82 S5        29.85R
HANKSVILLE     CLOUDY    55  50  82 CALM      29.83S
MILFORD        LGT RAIN  49  44  83 S21G26    29.84F
MOAB/CYNLANDS  CLOUDY    56  52  86 CALM      29.79R
PRICE          CLOUDY    50  43  77 S3        29.83S
ST GEORGE      CLOUDY    55  46  71 SE7       29.86S
KANAB          PTSUNNY   48  48 100 CALM      29.94S

$$

REGIONAL REPORTS     COLORADO/ARIZONA

CITY           SKY/WX    TMP DP  RH WIND       PRES   REMARKS
CRAIG, CO      LGT RAIN  48  44  86 W12       29.81S
GRAND JUNCTION CLOUDY    52  52 100 CALM      29.80S
RIFLE          LGT RAIN  48  45  89 CALM      29.83R FOG
MONTROSE       LGT RAIN  49  46  90 SE8       29.87R
CORTEZ         CLOUDY    49  46  90 W5        29.92R
PAGE, AZ       MOSUNNY   55  49  80 SE3       29.87R
GRAND CANYON   CLOUDY    44  40  85 CALM      29.98S
KINGMAN        SUNNY     62  34  35 S7        29.83F
FLAGSTAFF      MOSUNNY   41  41 100 CALM      30.00F

$$

REGIONAL REPORTS    NEVADA/IDAHO/WYOMING

CITY           SKY/WX    TMP DP  RH WIND       PRES   REMARKS
LAS VEGAS, NV  PTSUNNY   66  43  43 SW8       29.73R
ELY            CLOUDY    47  40  76 S9        29.88S
ELKO           CLOUDY    42  29  59 CALM      29.82S
POCATELLO, ID  MOSUNNY   46  23  40 SW14      29.85S
BURLEY         PTSUNNY   48  26  42 NW3       29.83S
EVANSTON, WY   CLOUDY    43  42  97 SW6       29.87S
ROCK SPRINGS   CLOUDY    47  41  80 W15       29.82R
KEMMERER       PTSUNNY   43  39  87 W14       29.85S

$$



USA.gov is the U.S. government's official web portal to all federal, state and local government web resources and services.